NORTHERN QUEENS  -  Freeze Warning Freeze Warning        SOUTHERN QUEENS  -  Freeze Warning Freeze Warning      

Active alerts

Northern Queens
  Details for Northern Queens Freeze Warning
Southern Queens
  Details for Southern Queens Freeze Warning


WXM80 ListenWXM80 Stop

You find our weather info also at:

UK Metoffice

WeatherCloud

Weather Underground

Northeastern Weather Network

AWEKAS

Citizen Weather Observer Program (CWOP)

HAMweather, WeatherForYou, PWS Weather


Weather Underground History page Text

Daily Summary for December 16, 2017 Units:  Metric    English   Both
« Previous Day
Next Day »
Daily Weekly Monthly Yearly Custom
  High: Low: Average:
Temperature: 3.5 °C -4.2 °C 0.3 °C
Dew Point: -1.1 °C -6.7 °C -3.8 °C
Humidity: 88 % 65 % 75 %
Wind Speed: 19.8 km/h 0 km/h 7.9 km/h
Wind Gust: 32.2 km/h - -
Wind:- - WSW
Pressure: 1022.6 hPa 1012.1 hPa -
Precipitation: 0 mm    
Historical Graphs
 
 
Tabular Data for December 16, 2017
Time Temperature Dew Point Pressure Wind Wind Speed Wind Gust Humidity Rainfall Rate (Hourly)
00:01 -3.8 °C -5.6 °C 1012.1 hPa SSW 2.9 km/h 9.7 km/h 87 % 0 mm
00:03 -3.8 °C -5.6 °C 1012.1 hPa SW 2.9 km/h 9.3 km/h 87 % 0 mm
00:08 -3.8 °C -5.8 °C 1012.1 hPa WNW 1.6 km/h 5.6 km/h 86 % 0 mm
00:13 -3.9 °C -5.7 °C 1012.1 hPa SW 4 km/h 13 km/h 87 % 0 mm
00:18 -3.9 °C -5.7 °C 1012.1 hPa SW 3.7 km/h 5.6 km/h 87 % 0 mm
00:23 -3.9 °C -5.8 °C 1012.1 hPa WSW 1.8 km/h 5.6 km/h 87 % 0 mm
00:24 -3.9 °C -5.8 °C 1012.1 hPa SW 2.6 km/h 5.6 km/h 87 % 0 mm
00:25 -3.9 °C -5.8 °C 1012.1 hPa SW 1.8 km/h 5.6 km/h 87 % 0 mm
00:30 -4 °C -5.8 °C 1012.1 hPa WNW 7.4 km/h 11.1 km/h 87 % 0 mm
00:32 -4 °C -5.8 °C 1012.1 hPa West 5.8 km/h 9.3 km/h 87 % 0 mm
00:37 -4 °C -5.8 °C 1012.1 hPa SW 1.1 km/h 6.4 km/h 87 % 0 mm
00:42 -4 °C -5.8 °C 1012.1 hPa South 0.8 km/h 5.6 km/h 87 % 0 mm
00:47 -4.1 °C -5.9 °C 1012.4 hPa West 0.3 km/h 5.6 km/h 87 % 0 mm
00:48 -4.1 °C -5.9 °C 1012.4 hPa Calm   5.6 km/h 87 % 0 mm
00:53 -4.1 °C -5.9 °C 1012.4 hPa SSW 0.5 km/h 1.9 km/h 87 % 0 mm
00:59 -4.1 °C -5.9 °C 1012.4 hPa WSW 1.1 km/h 6.4 km/h 87 % 0 mm
01:04 -4.2 °C -6 °C 1012.1 hPa WSW 5.1 km/h 7.4 km/h 87 % 0 mm
01:09 -4.2 °C -6 °C 1012.4 hPa SW 8 km/h 13 km/h 87 % 0 mm
01:10 -4.1 °C -5.8 °C 1012.4 hPa WSW 5.6 km/h 11.1 km/h 88 % 0 mm
01:13 -4.1 °C -5.8 °C 1012.1 hPa West 6.3 km/h 11.1 km/h 88 % 0 mm
01:18 -4.1 °C -5.7 °C 1012.4 hPa SSW 8.2 km/h 14.5 km/h 88 % 0 mm
01:23 -4 °C -5.7 °C 1012.4 hPa WSW 12.9 km/h 20.4 km/h 88 % 0 mm
01:24 -4 °C -5.7 °C 1012.1 hPa WSW 9.3 km/h 18.5 km/h 88 % 0 mm
01:29 -3.9 °C -5.7 °C 1012.4 hPa SW 2.9 km/h 11.1 km/h 88 % 0 mm
01:35 -3.8 °C -5.5 °C 1012.4 hPa WNW 6.3 km/h 18.5 km/h 88 % 0 mm
01:36 -3.8 °C -5.5 °C 1012.4 hPa WSW 9 km/h 14.8 km/h 88 % 0 mm
01:41 -3.7 °C -5.4 °C 1012.4 hPa WNW 3.2 km/h 9.7 km/h 88 % 0 mm
01:44 -3.7 °C -5.5 °C 1012.4 hPa WNW 2.3 km/h 11.1 km/h 87 % 0 mm
01:47 -3.7 °C -5.5 °C 1012.4 hPa WSW 5.6 km/h 9.7 km/h 87 % 0 mm
01:51 -3.6 °C -5.4 °C 1012.4 hPa WSW 6.6 km/h 18.5 km/h 87 % 0 mm
01:56 -3.6 °C -5.4 °C 1012.8 hPa WSW 6.9 km/h 22.2 km/h 87 % 0 mm
01:59 -3.6 °C -5.4 °C 1012.8 hPa West 9 km/h 18.5 km/h 87 % 0 mm
02:04 -3.5 °C -5.3 °C 1012.8 hPa WSW 10.5 km/h 27.4 km/h 87 % 0 mm
02:09 -3.4 °C -5.2 °C 1012.8 hPa SW 6.1 km/h 14.8 km/h 87 % 0 mm
02:13 -3.4 °C -5.2 °C 1012.8 hPa SW 6.1 km/h 16.7 km/h 87 % 0 mm
02:18 -3.3 °C -5.3 °C 1012.8 hPa WNW 10.1 km/h 20.4 km/h 86 % 0 mm
02:22 -3.3 °C -5.3 °C 1013.1 hPa WSW 9.3 km/h 18.5 km/h 86 % 0 mm
02:27 -3.3 °C -5.4 °C 1013.1 hPa WSW 8.7 km/h 14.8 km/h 85 % 0 mm
02:30 -3.3 °C -5.4 °C 1013.1 hPa WNW 8.2 km/h 13 km/h 85 % 0 mm
02:34 -3.3 °C -5.4 °C 1013.1 hPa WNW 10.8 km/h 16.7 km/h 85 % 0 mm
02:38 -3.2 °C -5.4 °C 1013.1 hPa West 6.8 km/h 14.8 km/h 85 % 0 mm
02:43 -3.2 °C -5.4 °C 1013.1 hPa SW 9 km/h 14.8 km/h 85 % 0 mm
02:45 -3.2 °C -5.5 °C 1013.1 hPa West 9.8 km/h 27.8 km/h 84 % 0 mm
02:50 -3.2 °C -5.5 °C 1013.1 hPa WSW 10.3 km/h 19.3 km/h 84 % 0 mm
02:52 -3.2 °C -5.5 °C 1013.1 hPa SW 10.6 km/h 24.1 km/h 84 % 0 mm
02:55 -3.2 °C -5.5 °C 1013.1 hPa WSW 8.2 km/h 16.7 km/h 84 % 0 mm
03:00 -3.1 °C -5.4 °C 1013.4 hPa West 8.5 km/h 13 km/h 84 % 0 mm
03:01 -3.1 °C -5.4 °C 1013.4 hPa West 8.2 km/h 16.1 km/h 84 % 0 mm
03:06 -3.1 °C -5.4 °C 1013.4 hPa WSW 12.6 km/h 22.2 km/h 84 % 0 mm
03:08 -3.1 °C -5.4 °C 1013.4 hPa WNW 7.6 km/h 18.5 km/h 84 % 0 mm
03:13 -3.1 °C -5.4 °C 1013.4 hPa SW 6.4 km/h 11.1 km/h 84 % 0 mm
03:17 -3.1 °C -5.4 °C 1013.4 hPa West 8 km/h 20.4 km/h 84 % 0 mm
03:22 -3.1 °C -5.6 °C 1013.8 hPa West 7.9 km/h 20.4 km/h 83 % 0 mm
03:23 -3.1 °C -5.6 °C 1013.4 hPa WNW 6 km/h 20.4 km/h 83 % 0 mm
03:27 -3.1 °C -5.6 °C 1013.4 hPa WSW 9.8 km/h 20.4 km/h 83 % 0 mm
03:28 -3.1 °C -5.6 °C 1013.4 hPa West 9.7 km/h 20.4 km/h 83 % 0 mm
03:33 -3.1 °C -5.6 °C 1013.4 hPa WNW 10.8 km/h 16.1 km/h 83 % 0 mm
03:34 -3.1 °C -5.6 °C 1013.8 hPa WNW 12.2 km/h 18.5 km/h 83 % 0 mm
03:39 -3 °C -5.5 °C 1013.4 hPa SW 9.8 km/h 22.2 km/h 83 % 0 mm
03:41 -3 °C -5.5 °C 1013.4 hPa WNW 8 km/h 17.7 km/h 83 % 0 mm
03:46 -3 °C -5.5 °C 1013.4 hPa SW 7.6 km/h 16.7 km/h 83 % 0 mm
03:51 -3 °C -5.7 °C 1013.8 hPa West 6 km/h 11.1 km/h 82 % 0 mm
03:56 -2.9 °C -5.6 °C 1013.8 hPa WNW 13.4 km/h 18.5 km/h 82 % 0 mm
03:57 -2.9 °C -5.6 °C 1013.8 hPa West 11.4 km/h 18.5 km/h 82 % 0 mm
04:02 -2.9 °C -5.6 °C 1013.8 hPa West 5.1 km/h 18.5 km/h 82 % 0 mm
04:05 -2.9 °C -5.6 °C 1013.8 hPa WSW 9.7 km/h 13 km/h 82 % 0 mm
04:10 -2.8 °C -5.7 °C 1013.8 hPa SW 12.2 km/h 20.4 km/h 81 % 0 mm
04:12 -2.8 °C -5.7 °C 1013.8 hPa NW 7.7 km/h 11.3 km/h 81 % 0 mm
04:17 -2.8 °C -5.7 °C 1013.8 hPa WSW 10.9 km/h 24.1 km/h 81 % 0 mm
04:19 -2.8 °C -5.7 °C 1013.8 hPa SW 8 km/h 14.8 km/h 81 % 0 mm
04:24 -2.8 °C -5.7 °C 1014.1 hPa West 7.2 km/h 20.4 km/h 81 % 0 mm
04:29 -2.8 °C -5.7 °C 1014.1 hPa SW 7.2 km/h 13 km/h 81 % 0 mm
04:30 -2.8 °C -5.7 °C 1014.1 hPa NW 10.8 km/h 18.5 km/h 81 % 0 mm
04:34 -2.8 °C -5.7 °C 1014.1 hPa WSW 10.5 km/h 22.5 km/h 81 % 0 mm
04:37 -2.8 °C -5.6 °C 1014.1 hPa West 9.8 km/h 14.8 km/h 81 % 0 mm
04:42 -2.8 °C -5.6 °C 1014.1 hPa WSW 8.5 km/h 16.7 km/h 81 % 0 mm
04:44 -2.8 °C -5.6 °C 1014.1 hPa West 6.8 km/h 18.5 km/h 81 % 0 mm
04:50 -2.7 °C -5.4 °C 1014.4 hPa WSW 6.9 km/h 16.7 km/h 82 % 0 mm
04:52 -2.7 °C -5.4 °C 1014.4 hPa West 4.3 km/h 11.1 km/h 82 % 0 mm
04:55 -2.7 °C -5.4 °C 1014.4 hPa SW 7.9 km/h 13 km/h 82 % 0 mm
05:00 -2.7 °C -5.3 °C 1014.4 hPa West 7.7 km/h 16.7 km/h 82 % 0 mm
05:05 -2.7 °C -5.5 °C 1014.4 hPa West 11.4 km/h 20.4 km/h 81 % 0 mm
05:07 -2.6 °C -5.4 °C 1014.4 hPa West 6.9 km/h 13 km/h 81 % 0 mm
05:11 -2.6 °C -5.4 °C 1014.4 hPa West 2.6 km/h 11.1 km/h 81 % 0 mm
05:13 -2.6 °C -5.4 °C 1014.4 hPa West 4.5 km/h 14.8 km/h 81 % 0 mm
05:18 -2.6 °C -5.4 °C 1014.4 hPa West 5.8 km/h 18.5 km/h 81 % 0 mm
05:19 -2.6 °C -5.4 °C 1014.4 hPa WSW 5 km/h 9.3 km/h 81 % 0 mm
05:23 -2.6 °C -5.6 °C 1014.4 hPa WSW 9.5 km/h 17.7 km/h 80 % 0 mm
05:26 -2.6 °C -5.6 °C 1014.4 hPa WSW 10 km/h 18.5 km/h 80 % 0 mm
05:31 -2.6 °C -5.6 °C 1014.4 hPa SSW 6.6 km/h 18.5 km/h 80 % 0 mm
05:32 -2.5 °C -5.5 °C 1014.4 hPa SW 8.7 km/h 19.3 km/h 80 % 0 mm
05:37 -2.5 °C -5.5 °C 1014.4 hPa SW 16.3 km/h 25.9 km/h 80 % 0 mm
05:42 -2.4 °C -5.6 °C 1014.4 hPa West 12.1 km/h 18.5 km/h 79 % 0 mm
05:46 -2.4 °C -5.6 °C 1014.8 hPa WSW 14.6 km/h 22.2 km/h 79 % 0 mm
05:51 -2.3 °C -5.5 °C 1014.8 hPa West 4.5 km/h 14.8 km/h 79 % 0 mm
05:56 -2.3 °C -5.5 °C 1014.8 hPa SSW 13.7 km/h 24.1 km/h 79 % 0 mm
06:02 -2.3 °C -5.7 °C 1015.1 hPa SW 7.1 km/h 13 km/h 78 % 0 mm
06:07 -2.4 °C -5.9 °C 1015.1 hPa SW 8 km/h 11.1 km/h 77 % 0 mm
06:12 -2.5 °C -6 °C 1015.1 hPa WSW 5.1 km/h 18.5 km/h 77 % 0 mm
06:13 -2.5 °C -6 °C 1015.1 hPa WSW 5.3 km/h 18.5 km/h 77 % 0 mm
06:15 -2.5 °C -6 °C 1015.1 hPa SSW 6.8 km/h 14.8 km/h 77 % 0 mm
06:20 -2.6 °C -6.1 °C 1015.1 hPa SW 6.4 km/h 16.1 km/h 77 % 0 mm
06:25 -2.7 °C -6.2 °C 1015.1 hPa SSW 6 km/h 16.7 km/h 77 % 0 mm
06:26 -2.7 °C -6.2 °C 1015.1 hPa SW 8 km/h 22.5 km/h 77 % 0 mm
06:31 -2.7 °C -6.2 °C 1015.1 hPa SW 8 km/h 19.3 km/h 77 % 0 mm
06:33 -2.8 °C -6.3 °C 1015.1 hPa SSW 6.4 km/h 11.1 km/h 77 % 0 mm
06:38 -2.8 °C -6.3 °C 1015.1 hPa SW 5.3 km/h 14.8 km/h 77 % 0 mm
06:40 -2.9 °C -6.3 °C 1015.1 hPa South 5.8 km/h 9.3 km/h 77 % 0 mm
06:45 -2.9 °C -6.4 °C 1015.1 hPa SW 10 km/h 13 km/h 77 % 0 mm
06:50 -3 °C -6.4 °C 1015.1 hPa SW 9 km/h 11.3 km/h 77 % 0 mm
06:51 -3 °C -6.4 °C 1015.5 hPa SW 10 km/h 14.8 km/h 77 % 0 mm
06:56 -3.1 °C -6.5 °C 1015.5 hPa WSW 6.3 km/h 11.1 km/h 77 % 0 mm
06:58 -3.1 °C -6.5 °C 1015.5 hPa SSW 8.9 km/h 14.8 km/h 77 % 0 mm
07:03 -3.1 °C -6.6 °C 1015.5 hPa WSW 7.4 km/h 13 km/h 77 % 0 mm
07:05 -3.1 °C -6.6 °C 1015.5 hPa SW 7.2 km/h 11.3 km/h 77 % 0 mm
07:08 -3.1 °C -6.6 °C 1015.8 hPa SW 11.7 km/h 20.4 km/h 77 % 0 mm
07:11 -3.2 °C -6.6 °C 1015.8 hPa SW 12.7 km/h 18.5 km/h 77 % 0 mm
07:16 -3.1 °C -6.6 °C 1015.8 hPa SW 6.8 km/h 11.1 km/h 77 % 0 mm
07:18 -3.1 °C -6.6 °C 1016.1 hPa South 8 km/h 13 km/h 77 % 0 mm
07:19 -3.1 °C -6.6 °C 1016.1 hPa WSW 9 km/h 18.5 km/h 77 % 0 mm
07:24 -3.1 °C -6.7 °C 1016.1 hPa SW 7.1 km/h 11.1 km/h 76 % 0 mm
07:29 -3.1 °C -6.7 °C 1016.1 hPa SSW 7.1 km/h 9.7 km/h 76 % 0 mm
07:34 -3.1 °C -6.7 °C 1016.1 hPa SW 7.4 km/h 11.1 km/h 76 % 0 mm
07:36 -3.1 °C -6.7 °C 1016.1 hPa SW 4.8 km/h 11.1 km/h 76 % 0 mm
07:41 -3.1 °C -6.7 °C 1016.1 hPa South 4.7 km/h 9.7 km/h 76 % 0 mm
07:45 -3.1 °C -6.7 °C 1016.5 hPa SW 6.1 km/h 12.9 km/h 76 % 0 mm
07:50 -3.1 °C -6.6 °C 1016.1 hPa SW 6.1 km/h 6.1 km/h 77 % 0 mm
07:51 -3.2 °C -6.6 °C 1016.1 hPa SSW 6 km/h 8 km/h 77 % 0 mm
07:56 -3.2 °C -6.6 °C 1016.5 hPa SSW 4.5 km/h 11.1 km/h 77 % 0 mm
08:01 -3.2 °C -6.6 °C 1016.5 hPa SW 7.1 km/h 9.7 km/h 77 % 0 mm
08:02 -3.2 °C -6.6 °C 1016.5 hPa SW 7.9 km/h 11.1 km/h 77 % 0 mm
08:07 -3.2 °C -6.6 °C 1016.5 hPa SW 6.8 km/h 9.7 km/h 77 % 0 mm
08:09 -3.2 °C -6.7 °C 1016.5 hPa SSW 4.3 km/h 11.1 km/h 77 % 0 mm
08:12 -3.2 °C -6.7 °C 1016.5 hPa WSW 5.8 km/h 11.1 km/h 77 % 0 mm
08:17 -3.2 °C -6.6 °C 1016.8 hPa SW 4.8 km/h 11.1 km/h 77 % 0 mm
08:21 -3.2 °C -6.6 °C 1016.8 hPa SW 7.2 km/h 17.7 km/h 77 % 0 mm
08:26 -3.1 °C -6.4 °C 1016.8 hPa SSW 7.7 km/h 16.7 km/h 78 % 0 mm
08:29 -3.1 °C -6.3 °C 1017.2 hPa SW 8.5 km/h 18.5 km/h 78 % 0 mm
08:34 -3 °C -6.3 °C 1017.2 hPa SW 10.3 km/h 16.7 km/h 78 % 0 mm
08:39 -2.8 °C -6.1 °C 1016.8 hPa WSW 5.3 km/h 14.8 km/h 78 % 0 mm
08:40 -2.8 °C -6.1 °C 1016.8 hPa SSW 8 km/h 13 km/h 78 % 0 mm
08:45 -2.7 °C -6 °C 1017.2 hPa SSW 1.9 km/h 7.4 km/h 78 % 0 mm
08:49 -2.7 °C -6 °C 1017.2 hPa SSW 10.1 km/h 18.5 km/h 78 % 0 mm
08:54 -2.5 °C -6 °C 1017.5 hPa WSW 10.3 km/h 14.8 km/h 77 % 0 mm
08:59 -2.4 °C -5.9 °C 1017.2 hPa SW 10.1 km/h 11.3 km/h 77 % 0 mm
09:04 -2.3 °C -5.8 °C 1017.2 hPa SSW 6.8 km/h 11.1 km/h 77 % 0 mm
09:08 -2.2 °C -5.7 °C 1017.2 hPa SW 10 km/h 18.5 km/h 77 % 0 mm
09:11 -2.1 °C -5.6 °C 1017.2 hPa SW 9 km/h 14.5 km/h 77 % 0 mm
09:17 -1.9 °C -5.6 °C 1017.5 hPa WSW 6.3 km/h 13 km/h 76 % 0 mm
09:18 -1.9 °C -5.4 °C 1017.5 hPa WSW 5.5 km/h 8 km/h 77 % 0 mm
09:23 -1.8 °C -5.3 °C 1017.5 hPa SW 7.1 km/h 13 km/h 77 % 0 mm
09:26 -1.7 °C -5.3 °C 1017.5 hPa SW 4 km/h 16.7 km/h 76 % 0 mm
09:31 -1.6 °C -5.2 °C 1017.5 hPa South 9.3 km/h 14.8 km/h 76 % 0 mm
09:36 -1.3 °C -5 °C 1017.8 hPa SW 7.1 km/h 13 km/h 76 % 0 mm
09:37 -1.3 °C -4.9 °C 1017.8 hPa SW 9.5 km/h 11.3 km/h 76 % 0 mm
09:42 -1.1 °C -4.8 °C 1017.8 hPa SSW 9.3 km/h 14.8 km/h 76 % 0 mm
09:43 -1.1 °C -4.8 °C 1017.8 hPa SW 12.4 km/h 20.9 km/h 76 % 0 mm
09:44 -1.1 °C -4.9 °C 1017.8 hPa WSW 14.6 km/h 22.2 km/h 75 % 0 mm
09:49 -0.8 °C -4.9 °C 1017.8 hPa SW 7.1 km/h 14.8 km/h 74 % 0 mm
09:50 -0.8 °C -4.8 °C 1017.8 hPa WSW 11.9 km/h 16.1 km/h 74 % 0 mm
09:51 -0.7 °C -4.8 °C 1017.8 hPa WSW 8 km/h 16.7 km/h 74 % 0 mm
09:55 -0.6 °C -4.6 °C 1017.8 hPa SSW 9.3 km/h 18.5 km/h 74 % 0 mm
10:00 -0.3 °C -4.6 °C 1017.8 hPa WSW 10 km/h 14.8 km/h 73 % 0 mm
10:01 -0.3 °C -4.6 °C 1017.8 hPa WSW 6.9 km/h 14.8 km/h 73 % 0 mm
10:06 0 °C -4.4 °C 1017.8 hPa West 7.1 km/h 14.8 km/h 72 % 0 mm
10:07 0.1 °C -4.4 °C 1017.8 hPa South 13.2 km/h 25.9 km/h 72 % 0 mm
10:11 0.2 °C -4.4 °C 1017.5 hPa SSW 12.9 km/h 18.5 km/h 71 % 0 mm
10:15 0.4 °C -4.4 °C 1017.5 hPa SW 11.3 km/h 18.5 km/h 70 % 0 mm
10:20 0.6 °C -4.5 °C 1017.5 hPa WSW 9.2 km/h 22.2 km/h 69 % 0 mm
10:21 0.6 °C -4.2 °C 1017.5 hPa WSW 10.1 km/h 17.7 km/h 70 % 0 mm
10:22 0.7 °C -4.2 °C 1017.5 hPa WSW 10.8 km/h 18.5 km/h 70 % 0 mm
10:27 0.9 °C -3.9 °C 1017.5 hPa SSW 13 km/h 16.1 km/h 70 % 0 mm
10:31 1 °C -4.2 °C 1017.2 hPa SW 12.7 km/h 20.4 km/h 68 % 0 mm
10:36 1.2 °C -4.1 °C 1017.2 hPa SSW 9.7 km/h 14.8 km/h 68 % 0 mm
10:37 1.2 °C -4.1 °C 1017.2 hPa West 7.6 km/h 9.3 km/h 68 % 0 mm
10:41 1.3 °C -4.2 °C 1017.2 hPa WSW 14.5 km/h 20.4 km/h 67 % 0 mm
10:44 1.4 °C -4.1 °C 1017.2 hPa SW 9.8 km/h 31.5 km/h 67 % 0 mm
10:49 1.6 °C -3.9 °C 1017.2 hPa SSW 10.5 km/h 18.5 km/h 67 % 0 mm
10:54 1.7 °C -3.9 °C 1016.8 hPa SW 9.2 km/h 17.7 km/h 66 % 0 mm
10:56 1.8 °C -3.9 °C 1016.8 hPa SW 7.4 km/h 18.5 km/h 66 % 0 mm
11:01 1.9 °C -3.8 °C 1016.8 hPa West 7.4 km/h 14.8 km/h 66 % 0 mm
11:02 1.9 °C -3.8 °C 1016.8 hPa SW 7.1 km/h 19.3 km/h 66 % 0 mm
11:05 2 °C -3.7 °C 1016.8 hPa SSW 13.4 km/h 20.4 km/h 66 % 0 mm
11:10 2 °C -3.9 °C 1016.8 hPa WSW 5.6 km/h 16.7 km/h 65 % 0 mm
11:11 2 °C -3.9 °C 1016.8 hPa SW 6 km/h 7.4 km/h 65 % 0 mm
11:16 2 °C -3.5 °C 1016.5 hPa SW 5.3 km/h 8 km/h 67 % 0 mm
11:17 2 °C -3.5 °C 1016.5 hPa West 8.2 km/h 14.8 km/h 67 % 0 mm
11:22 1.9 °C -3.7 °C 1016.5 hPa SSW 7.6 km/h 16.7 km/h 66 % 0 mm
11:28 1.9 °C -3.6 °C 1016.5 hPa SSW 8.2 km/h 13 km/h 67 % 0 mm
11:30 2 °C -3.5 °C 1016.5 hPa SSW 8.7 km/h 13 km/h 67 % 0 mm
11:32 2 °C -3.5 °C 1016.5 hPa WSW 5.6 km/h 13 km/h 67 % 0 mm
11:37 2.1 °C -3.4 °C 1016.1 hPa SW 6.1 km/h 14.8 km/h 67 % 0 mm
11:42 2.2 °C -3.1 °C 1016.1 hPa WSW 7.9 km/h 16.1 km/h 68 % 0 mm
11:43 2.2 °C -3.1 °C 1016.1 hPa WSW 10.5 km/h 16.7 km/h 68 % 0 mm
11:45 2.2 °C -3.1 °C 1016.1 hPa WSW 5.3 km/h 11.1 km/h 68 % 0 mm
11:50 2.3 °C -3 °C 1016.1 hPa SW 6.3 km/h 6.4 km/h 68 % 0 mm
11:55 2.4 °C -3.1 °C 1015.8 hPa WSW 8.5 km/h 24.1 km/h 67 % 0 mm
11:58 2.4 °C -3.3 °C 1015.8 hPa SW 13.7 km/h 18.5 km/h 66 % 0 mm
12:01 2.4 °C -3.3 °C 1015.8 hPa South 11.4 km/h 18.5 km/h 66 % 0 mm
12:04 2.4 °C -3.3 °C 1015.8 hPa SW 12.6 km/h 20.4 km/h 66 % 0 mm
12:09 2.4 °C -3.5 °C 1015.8 hPa WSW 13 km/h 24.1 km/h 65 % 0 mm
12:10 2.4 °C -3.5 °C 1015.8 hPa WSW 10.5 km/h 22.2 km/h 65 % 0 mm
12:15 2.5 °C -3.2 °C 1015.5 hPa WSW 6 km/h 14.8 km/h 66 % 0 mm
12:18 2.5 °C -3.2 °C 1015.5 hPa WSW 11.6 km/h 18.5 km/h 66 % 0 mm
12:20 2.5 °C -3.2 °C 1015.5 hPa SW 11.1 km/h 16.7 km/h 66 % 0 mm
12:26 2.6 °C -3.2 °C 1015.5 hPa WSW 11.3 km/h 18.5 km/h 66 % 0 mm
12:31 2.7 °C -3.1 °C 1015.1 hPa WSW 14.5 km/h 22.5 km/h 66 % 0 mm
12:32 2.7 °C -3 °C 1015.1 hPa WNW 6.3 km/h 14.8 km/h 66 % 0 mm
12:33 2.8 °C -2.9 °C 1014.8 hPa SW 6.9 km/h 16.7 km/h 66 % 0 mm
12:38 2.8 °C -3.1 °C 1015.1 hPa WSW 12.2 km/h 25.9 km/h 65 % 0 mm
12:43 2.9 °C -2.8 °C 1015.1 hPa WSW 6 km/h 20.4 km/h 66 % 0 mm
12:45 2.9 °C -2.8 °C 1015.1 hPa WSW 13.2 km/h 22.2 km/h 66 % 0 mm
12:51 2.8 °C -3.1 °C 1015.1 hPa West 9.5 km/h 29.6 km/h 65 % 0 mm
12:53 2.8 °C -2.9 °C 1015.1 hPa SW 9.8 km/h 27.8 km/h 66 % 0 mm
12:55 2.8 °C -2.9 °C 1015.1 hPa WSW 6.4 km/h 22.2 km/h 66 % 0 mm
13:00 2.9 °C -2.8 °C 1015.1 hPa West 10.5 km/h 18.5 km/h 66 % 0 mm
13:01 2.9 °C -2.8 °C 1015.1 hPa West 5.3 km/h 18.5 km/h 66 % 0 mm
13:06 3 °C -2.6 °C 1015.1 hPa WSW 11.4 km/h 18.5 km/h 67 % 0 mm
13:11 3.1 °C -2.4 °C 1015.1 hPa WSW 12.9 km/h 22.2 km/h 67 % 0 mm
13:13 3.1 °C -2.7 °C 1015.1 hPa NNW 14 km/h 22.2 km/h 66 % 0 mm
13:14 3.1 °C -2.7 °C 1015.1 hPa SSW 16.3 km/h 32.2 km/h 66 % 0 mm
13:19 3 °C -2.7 °C 1015.1 hPa WSW 8.2 km/h 18.5 km/h 66 % 0 mm
13:23 3 °C -2.7 °C 1014.8 hPa WSW 10.3 km/h 18.5 km/h 66 % 0 mm
13:26 3 °C -2.7 °C 1014.8 hPa SSW 9.2 km/h 24.1 km/h 66 % 0 mm
13:28 3 °C -2.6 °C 1014.8 hPa WNW 11.3 km/h 29.6 km/h 67 % 0 mm
13:32 3 °C -2.7 °C 1014.8 hPa WSW 11.1 km/h 22.2 km/h 66 % 0 mm
13:37 3.1 °C -2.7 °C 1014.8 hPa West 8.5 km/h 18.5 km/h 66 % 0 mm
13:42 3.1 °C -2.7 °C 1014.8 hPa WSW 15.3 km/h 22.5 km/h 66 % 0 mm
13:43 3.1 °C -2.6 °C 1014.8 hPa WSW 14 km/h 27.8 km/h 66 % 0 mm
13:44 3.1 °C -2.8 °C 1014.8 hPa SW 16.6 km/h 31.5 km/h 65 % 0 mm
13:49 3.1 °C -2.9 °C 1014.8 hPa WSW 13.7 km/h 18.5 km/h 65 % 0 mm
13:50 3.1 °C -2.9 °C 1014.8 hPa SW 13.4 km/h 18.5 km/h 65 % 0 mm
13:55 3.2 °C -2.8 °C 1014.8 hPa SW 13.4 km/h 20.4 km/h 65 % 0 mm
13:57 3.2 °C -2.5 °C 1014.8 hPa West 18.5 km/h 27.8 km/h 66 % 0 mm
14:02 3.3 °C -2.6 °C 1014.8 hPa West 13.8 km/h 27.8 km/h 65 % 0 mm
14:07 3.4 °C -2.3 °C 1014.8 hPa WNW 19.8 km/h 31.5 km/h 66 % 0 mm
14:09 3.4 °C -2.3 °C 1015.1 hPa WSW 9.2 km/h 16.7 km/h 66 % 0 mm
14:14 3.5 °C -2.3 °C 1015.1 hPa WNW 8 km/h 13 km/h 66 % 0 mm
14:16 3.5 °C -2.3 °C 1015.1 hPa WSW 12.9 km/h 24.1 km/h 66 % 0 mm
14:20 3.5 °C -2.3 °C 1015.1 hPa SSW 9.7 km/h 14.8 km/h 66 % 0 mm
14:25 3.4 °C -2.3 °C 1015.1 hPa SW 14.8 km/h 19.3 km/h 66 % 0 mm
14:26 3.4 °C -2.3 °C 1015.1 hPa WSW 12.9 km/h 25.7 km/h 66 % 0 mm
14:31 3.3 °C -2.4 °C 1014.8 hPa SW 9.7 km/h 20.9 km/h 66 % 0 mm
14:34 3.3 °C -2.5 °C 1014.8 hPa West 5.6 km/h 9.7 km/h 66 % 0 mm
14:35 3.3 °C -2.5 °C 1015.1 hPa West 9.3 km/h 18.5 km/h 66 % 0 mm
14:40 3.2 °C -2.5 °C 1015.1 hPa WSW 10.6 km/h 18.5 km/h 66 % 0 mm
14:44 3.2 °C -2.6 °C 1015.1 hPa West 13.5 km/h 24.1 km/h 66 % 0 mm
14:48 3.1 °C -2.7 °C 1015.5 hPa WSW 10.6 km/h 16.7 km/h 66 % 0 mm
14:54 3.1 °C -2.7 °C 1015.5 hPa SW 10.1 km/h 20.4 km/h 66 % 0 mm
14:59 3 °C -2.6 °C 1015.1 hPa WSW 12.2 km/h 22.2 km/h 67 % 0 mm
15:00 3 °C -2.6 °C 1015.1 hPa WSW 9.7 km/h 22.2 km/h 67 % 0 mm
15:05 3 °C -2.3 °C 1015.1 hPa SSW 6.8 km/h 16.7 km/h 68 % 0 mm
15:09 2.9 °C -2.4 °C 1015.1 hPa West 7.9 km/h 24.1 km/h 68 % 0 mm
15:11 2.9 °C -2.4 °C 1015.1 hPa WSW 4.8 km/h 24.1 km/h 68 % 0 mm
15:16 2.9 °C -2.2 °C 1015.1 hPa WSW 9.8 km/h 24.1 km/h 69 % 0 mm
15:18 2.9 °C -2.4 °C 1015.1 hPa WSW 12.1 km/h 18.5 km/h 68 % 0 mm
15:23 2.9 °C -2.2 °C 1015.1 hPa West 14.5 km/h 31.5 km/h 69 % 0 mm
15:24 2.9 °C -2.4 °C 1015.1 hPa West 8.4 km/h 20.4 km/h 68 % 0 mm
15:29 2.9 °C -2.4 °C 1015.5 hPa SSW 11.3 km/h 18.5 km/h 68 % 0 mm
15:35 2.9 °C -2.4 °C 1015.5 hPa SW 11.6 km/h 24.1 km/h 68 % 0 mm
15:40 2.9 °C -2.2 °C 1015.5 hPa West 11.1 km/h 20.4 km/h 69 % 0 mm
15:44 2.9 °C -2.2 °C 1015.5 hPa SSW 5.1 km/h 13 km/h 69 % 0 mm
15:49 2.9 °C -2.2 °C 1015.5 hPa West 9.2 km/h 16.7 km/h 69 % 0 mm
15:52 2.9 °C -2.2 °C 1015.5 hPa SW 12.7 km/h 20.4 km/h 69 % 0 mm
15:57 2.9 °C -2.2 °C 1015.8 hPa WSW 10 km/h 18.5 km/h 69 % 0 mm
16:02 2.9 °C -2.2 °C 1015.8 hPa West 10.5 km/h 29.6 km/h 69 % 0 mm
16:07 2.9 °C -2.1 °C 1015.8 hPa WNW 9.8 km/h 29 km/h 70 % 0 mm
16:12 2.9 °C -2.1 °C 1015.8 hPa WSW 8.5 km/h 14.8 km/h 70 % 0 mm
16:13 2.9 °C -2.1 °C 1015.8 hPa West 14.3 km/h 24.1 km/h 70 % 0 mm
16:19 2.9 °C -2.1 °C 1016.1 hPa SW 9 km/h 14.8 km/h 70 % 0 mm
16:24 2.9 °C -1.8 °C 1016.1 hPa WSW 8.9 km/h 16.7 km/h 71 % 0 mm
16:30 2.9 °C -1.8 °C 1016.1 hPa WSW 4.8 km/h 18.5 km/h 71 % 0 mm
16:31 2.9 °C -1.8 °C 1016.1 hPa SW 11.7 km/h 20.4 km/h 71 % 0 mm
16:36 2.9 °C -1.8 °C 1016.5 hPa South 14.6 km/h 24.1 km/h 71 % 0 mm
16:37 2.8 °C -1.9 °C 1016.5 hPa West 11.7 km/h 24.1 km/h 71 % 0 mm
16:42 2.8 °C -1.9 °C 1016.5 hPa SW 8 km/h 18.5 km/h 71 % 0 mm
16:43 2.8 °C -1.9 °C 1016.5 hPa West 11.6 km/h 22.2 km/h 71 % 0 mm
16:48 2.9 °C -1.8 °C 1016.5 hPa West 9.5 km/h 14.5 km/h 71 % 0 mm
16:53 2.9 °C -1.8 °C 1016.5 hPa West 14.6 km/h 27.4 km/h 71 % 0 mm
16:54 2.9 °C -1.8 °C 1016.8 hPa WSW 16.9 km/h 27.8 km/h 71 % 0 mm
16:59 2.9 °C -1.8 °C 1016.5 hPa WSW 7.1 km/h 16.7 km/h 71 % 0 mm
17:02 2.9 °C -1.8 °C 1016.8 hPa West 6.6 km/h 18.5 km/h 71 % 0 mm
17:03 2.9 °C -1.8 °C 1016.8 hPa SW 8.2 km/h 16.7 km/h 71 % 0 mm
17:07 2.9 °C -1.8 °C 1016.8 hPa WSW 9.8 km/h 14.8 km/h 71 % 0 mm
17:10 2.9 °C -1.8 °C 1016.8 hPa WSW 3.1 km/h 13 km/h 71 % 0 mm
17:12 2.9 °C -1.8 °C 1016.8 hPa SW 2.6 km/h 9.3 km/h 71 % 0 mm
17:17 2.9 °C -1.6 °C 1016.8 hPa West 3.2 km/h 7.4 km/h 72 % 0 mm
17:19 2.9 °C -1.6 °C 1016.8 hPa WSW 10.1 km/h 16.7 km/h 72 % 0 mm
17:24 2.9 °C -1.6 °C 1017.2 hPa WSW 12.7 km/h 16.1 km/h 72 % 0 mm
17:25 2.9 °C -1.8 °C 1017.2 hPa West 13.7 km/h 14.8 km/h 71 % 0 mm
17:30 2.9 °C -1.6 °C 1017.2 hPa WNW 2.3 km/h 11.1 km/h 72 % 0 mm
17:33 2.9 °C -1.6 °C 1017.5 hPa WSW 6.8 km/h 13 km/h 72 % 0 mm
17:38 2.9 °C -1.6 °C 1017.5 hPa West 4.3 km/h 11.1 km/h 72 % 0 mm
17:39 2.9 °C -1.6 °C 1017.5 hPa West 3.2 km/h 11.1 km/h 72 % 0 mm
17:44 2.9 °C -1.4 °C 1017.8 hPa WNW 5.5 km/h 8 km/h 73 % 0 mm
17:49 2.9 °C -1.4 °C 1017.8 hPa WNW 6.9 km/h 13 km/h 73 % 0 mm
17:50 2.9 °C -1.4 °C 1017.8 hPa NW 3.5 km/h 9.3 km/h 73 % 0 mm
17:54 2.9 °C -1.4 °C 1017.8 hPa WNW 3.1 km/h 7.4 km/h 73 % 0 mm
17:56 2.9 °C -1.4 °C 1017.8 hPa WNW 1.4 km/h 5.6 km/h 73 % 0 mm
18:01 2.9 °C -1.2 °C 1018.2 hPa West 3.7 km/h 7.4 km/h 74 % 0 mm
18:03 2.9 °C -1.4 °C 1018.2 hPa WSW 3.4 km/h 11.3 km/h 73 % 0 mm
18:08 2.9 °C -1.5 °C 1018.2 hPa WNW 5.8 km/h 11.1 km/h 73 % 0 mm
18:09 2.9 °C -1.5 °C 1018.2 hPa West 6.6 km/h 12.9 km/h 73 % 0 mm
18:14 2.9 °C -1.5 °C 1018.5 hPa WNW 8.7 km/h 9.3 km/h 73 % 0 mm
18:16 2.9 °C -1.5 °C 1018.5 hPa WNW 6.1 km/h 14.8 km/h 73 % 0 mm
18:17 2.9 °C -1.5 °C 1018.5 hPa West 2.4 km/h 14.8 km/h 73 % 0 mm
18:22 2.8 °C -1.6 °C 1018.5 hPa West 3.5 km/h 9.3 km/h 73 % 0 mm
18:25 2.9 °C -1.5 °C 1018.5 hPa WNW 1 km/h 5.6 km/h 73 % 0 mm
18:26 2.9 °C -1.5 °C 1018.8 hPa WNW 1.6 km/h 5.6 km/h 73 % 0 mm
18:31 2.9 °C -1.5 °C 1018.8 hPa NW 3.5 km/h 7.4 km/h 73 % 0 mm
18:33 2.9 °C -1.3 °C 1018.8 hPa WNW 2.4 km/h 13 km/h 74 % 0 mm
18:38 2.9 °C -1.3 °C 1019.2 hPa West 3.2 km/h 14.8 km/h 74 % 0 mm
18:39 2.9 °C -1.3 °C 1018.8 hPa WNW 6 km/h 14.8 km/h 74 % 0 mm
18:41 2.9 °C -1.3 °C 1018.8 hPa NW 5.5 km/h 14.8 km/h 74 % 0 mm
18:46 2.9 °C -1.3 °C 1019.2 hPa West 4.3 km/h 13 km/h 74 % 0 mm
18:47 2.9 °C -1.3 °C 1019.2 hPa WNW 7.9 km/h 16.7 km/h 74 % 0 mm
18:52 2.9 °C -1.3 °C 1019.2 hPa West 4.2 km/h 11.1 km/h 74 % 0 mm
18:54 2.9 °C -1.3 °C 1019.2 hPa NW 5 km/h 14.5 km/h 74 % 0 mm
18:58 2.9 °C -1.3 °C 1019.2 hPa WNW 8.5 km/h 12.9 km/h 74 % 0 mm
19:00 2.9 °C -1.3 °C 1019.2 hPa WNW 6.6 km/h 13 km/h 74 % 0 mm
19:05 2.9 °C -1.3 °C 1019.2 hPa WNW 3.7 km/h 8 km/h 74 % 0 mm
19:10 2.9 °C -1.3 °C 1019.2 hPa WSW 7.6 km/h 11.3 km/h 74 % 0 mm
19:15 2.8 °C -1.3 °C 1019.5 hPa WNW 6.1 km/h 13 km/h 74 % 0 mm
19:18 2.8 °C -1.2 °C 1019.5 hPa WNW 6.4 km/h 17.7 km/h 75 % 0 mm
19:24 2.8 °C -1.2 °C 1019.9 hPa NW 10.1 km/h 14.5 km/h 75 % 0 mm
19:29 2.8 °C -1.3 °C 1019.9 hPa WNW 3.5 km/h 6.4 km/h 74 % 0 mm
19:32 2.8 °C -1.3 °C 1019.9 hPa NW 7.9 km/h 16.7 km/h 74 % 0 mm
19:34 2.8 °C -1.2 °C 1019.9 hPa WNW 6.8 km/h 13 km/h 75 % 0 mm
19:39 2.8 °C -1.2 °C 1019.9 hPa West 3.4 km/h 9.3 km/h 75 % 0 mm
19:40 2.8 °C -1.2 °C 1019.9 hPa NW 6 km/h 13 km/h 75 % 0 mm
19:45 2.8 °C -1.2 °C 1019.9 hPa WSW 9.3 km/h 14.8 km/h 75 % 0 mm
19:50 2.8 °C -1.2 °C 1020.2 hPa WNW 9.7 km/h 16.7 km/h 75 % 0 mm
19:55 2.8 °C -1.2 °C 1020.2 hPa WNW 5 km/h 11.1 km/h 75 % 0 mm
20:00 2.8 °C -1.1 °C 1020.2 hPa WNW 5.8 km/h 13 km/h 76 % 0 mm
20:01 2.8 °C -1.1 °C 1020.2 hPa NW 6.1 km/h 11.1 km/h 76 % 0 mm
20:06 2.8 °C -1.1 °C 1020.5 hPa WNW 7.1 km/h 11.1 km/h 76 % 0 mm
20:08 2.8 °C -1.1 °C 1020.5 hPa WNW 5.5 km/h 14.8 km/h 76 % 0 mm
20:11 2.8 °C -1.1 °C 1020.5 hPa WNW 5.5 km/h 13 km/h 76 % 0 mm
20:16 2.8 °C -1.1 °C 1020.5 hPa WNW 6.8 km/h 16.1 km/h 76 % 0 mm
20:17 2.8 °C -1.1 °C 1020.5 hPa WNW 6.3 km/h 14.8 km/h 76 % 0 mm
20:18 2.8 °C -1.1 °C 1020.5 hPa WNW 7.2 km/h 18.5 km/h 76 % 0 mm
20:22 2.8 °C -1.1 °C 1020.9 hPa NNW 10.5 km/h 20.4 km/h 76 % 0 mm
20:27 2.8 °C -1.4 °C 1020.9 hPa West 6.1 km/h 16.7 km/h 74 % 0 mm
20:31 2.8 °C -1.8 °C 1020.9 hPa WNW 8 km/h 16.7 km/h 72 % 0 mm
20:36 2.7 °C -1.8 °C 1020.9 hPa NNW 4.7 km/h 9.3 km/h 72 % 0 mm
20:38 2.7 °C -1.9 °C 1020.9 hPa WNW 2.7 km/h 9.3 km/h 72 % 0 mm
20:43 2.7 °C -1.9 °C 1020.9 hPa West 8.9 km/h 18.5 km/h 72 % 0 mm
20:44 2.7 °C -1.9 °C 1020.9 hPa WNW 6.1 km/h 11.1 km/h 72 % 0 mm
20:49 2.6 °C -2.1 °C 1020.9 hPa WNW 9 km/h 13 km/h 71 % 0 mm
20:50 2.6 °C -2.1 °C 1020.9 hPa NW 8.9 km/h 13 km/h 71 % 0 mm
20:55 2.6 °C -2.2 °C 1020.9 hPa West 8.5 km/h 16.7 km/h 71 % 0 mm
21:00 2.5 °C -2.1 °C 1020.9 hPa WNW 9 km/h 14.8 km/h 72 % 0 mm
21:01 2.6 °C -2 °C 1020.9 hPa NW 9.7 km/h 14.8 km/h 72 % 0 mm
21:06 2.5 °C -2.1 °C 1020.9 hPa West 5.6 km/h 9.3 km/h 72 % 0 mm
21:08 2.5 °C -2.2 °C 1020.9 hPa West 7.9 km/h 16.7 km/h 71 % 0 mm
21:11 2.4 °C -2.3 °C 1020.9 hPa WNW 9.2 km/h 13 km/h 71 % 0 mm
21:16 2.4 °C -2.5 °C 1021.2 hPa WNW 6.3 km/h 11.1 km/h 70 % 0 mm
21:18 2.4 °C -2.5 °C 1021.2 hPa WSW 6 km/h 14.8 km/h 70 % 0 mm
21:23 2.4 °C -2.3 °C 1021.2 hPa NW 6.8 km/h 13 km/h 71 % 0 mm
21:25 2.3 °C -2.4 °C 1021.2 hPa WNW 7.1 km/h 13 km/h 71 % 0 mm
21:30 2.3 °C -2.6 °C 1021.2 hPa WNW 4.2 km/h 13 km/h 70 % 0 mm
21:35 2.3 °C -2.6 °C 1021.2 hPa WNW 9 km/h 20.4 km/h 70 % 0 mm
21:40 2.3 °C -2.4 °C 1021.6 hPa NW 9.3 km/h 16.7 km/h 71 % 0 mm
21:44 2.2 °C -2.5 °C 1021.6 hPa NW 9.7 km/h 18.5 km/h 71 % 0 mm
21:49 2.2 °C -2.7 °C 1021.6 hPa NW 7.2 km/h 18.5 km/h 70 % 0 mm
21:50 2.2 °C -2.7 °C 1021.6 hPa NW 5.3 km/h 18.5 km/h 70 % 0 mm
21:55 2.2 °C -2.6 °C 1021.6 hPa NW 5.1 km/h 14.5 km/h 71 % 0 mm
22:00 2.2 °C -2.6 °C 1021.6 hPa NNW 4.7 km/h 14.8 km/h 71 % 0 mm
22:05 2.1 °C -2.6 °C 1021.6 hPa NNW 4.2 km/h 7.4 km/h 71 % 0 mm
22:10 2.1 °C -2.6 °C 1021.9 hPa WNW 7.9 km/h 18.5 km/h 71 % 0 mm
22:12 2.1 °C -2.7 °C 1021.9 hPa NW 2.9 km/h 11.1 km/h 71 % 0 mm
22:17 2.1 °C -2.8 °C 1021.9 hPa NW 3.5 km/h 11.1 km/h 70 % 0 mm
22:18 2.1 °C -2.8 °C 1021.9 hPa NW 3.4 km/h 5.6 km/h 70 % 0 mm
22:23 2 °C -2.7 °C 1021.9 hPa NW 5.3 km/h 8 km/h 71 % 0 mm
22:25 2 °C -2.7 °C 1022.2 hPa WNW 7.9 km/h 7.9 km/h 71 % 0 mm
22:29 2 °C -2.7 °C 1022.2 hPa NW 7.6 km/h 11.3 km/h 71 % 0 mm
22:34 1.9 °C -2.8 °C 1022.6 hPa WNW 2.6 km/h 11.1 km/h 71 % 0 mm
22:39 1.9 °C -2.8 °C 1022.2 hPa NW 8 km/h 22.2 km/h 71 % 0 mm
22:42 1.9 °C -2.8 °C 1022.2 hPa NW 8.5 km/h 11.1 km/h 71 % 0 mm
22:48 1.8 °C -3.1 °C 1022.2 hPa North 7.2 km/h 11.1 km/h 70 % 0 mm
22:50 1.8 °C -2.9 °C 1022.2 hPa NNW 6.1 km/h 13 km/h 71 % 0 mm
22:52 1.8 °C -2.9 °C 1022.2 hPa NW 2.7 km/h 13 km/h 71 % 0 mm
22:55 1.8 °C -2.9 °C 1022.2 hPa West 1.6 km/h 7.4 km/h 71 % 0 mm
22:57 1.8 °C -2.9 °C 1022.6 hPa NW 2.4 km/h 7.4 km/h 71 % 0 mm
23:02 1.8 °C -2.9 °C 1022.6 hPa NNW 4 km/h 6.4 km/h 71 % 0 mm
23:03 1.8 °C -2.9 °C 1022.6 hPa North 4.8 km/h 8 km/h 71 % 0 mm
23:04 1.8 °C -2.9 °C 1022.6 hPa NNW 3.7 km/h 7.4 km/h 71 % 0 mm
23:09 1.8 °C -2.9 °C 1022.6 hPa NW 1.8 km/h 3.2 km/h 71 % 0 mm
23:12 1.8 °C -2.9 °C 1022.6 hPa NW 4.3 km/h 9.3 km/h 71 % 0 mm
23:14 1.7 °C -3 °C 1022.6 hPa NNW 3.4 km/h 5.6 km/h 71 % 0 mm
23:18 1.7 °C -2.8 °C 1022.2 hPa North 3.7 km/h 11.1 km/h 72 % 0 mm
23:23 1.7 °C -2.8 °C 1022.2 hPa NW 6.8 km/h 13 km/h 72 % 0 mm
23:28 1.7 °C -2.8 °C 1022.6 hPa WNW 5 km/h 8 km/h 72 % 0 mm
23:29 1.7 °C -2.8 °C 1022.2 hPa NW 3.5 km/h 7.4 km/h 72 % 0 mm
23:34 1.7 °C -2.8 °C 1022.6 hPa NNW 4.2 km/h 9.3 km/h 72 % 0 mm
23:39 1.7 °C -3.1 °C 1022.6 hPa North 3.1 km/h 9.3 km/h 71 % 0 mm
23:44 1.6 °C -2.9 °C 1022.6 hPa NNE 6 km/h 7.4 km/h 72 % 0 mm
23:49 1.6 °C -2.7 °C 1022.6 hPa NNE 4.5 km/h 9.3 km/h 73 % 0 mm
23:50 1.6 °C -2.8 °C 1022.6 hPa NNE 5 km/h 9.3 km/h 73 % 0 mm
23:55 1.6 °C -2.8 °C 1022.6 hPa NNE 3.4 km/h 14.8 km/h 73 % 0 mm
23:58 1.4 °C -2.9 °C 1022.6 hPa NE 7.9 km/h 13 km/h 73 % 0 mm
Crab Meadow Weather
Compliments of Weather Underground - 3.5 mb

Script developed by  Jim McMurry - jmcmurry@mwt.net Adapted for the template by  Wim van der Kuil - Leuven-Template.eu

Astronomy: A year on Venus is 225 days.